Find Starlink 31881

NORAD ID: 59659 Int'l Des: 2024-084 Owner: SPXS Country: US Constellation: starlink operational
LEOCIRCULAR

Live Position

Loading 3D Globe...

About Starlink 31881

Description loading...

Upcoming Passes

Passes for default location (London). Set your location on the main map for personalized predictions.

Altitude History

Loading altitude history...

Two-Line Element Set

1 59659U 24084F 26130.06297833 .00006713 00000-0 25331-3 0 9996
2 59659 42.9989 51.3672 0001280 269.3786 90.6919 15.27570982113806
Epoch: May 10, 2026 • Age: 11 hours

Current Status

Altitude 487.0 km
Velocity 7.63 km/s
Sub-Earth Point 42.85°N, 69.03°E
Launch Date May 6, 2024
Age 2 years
Type internet

Technical Details

Classification Payload
Mass 730.00 kg
Dry Mass 700.00 kg
Total Mass 730.00 kg
Length 0.30 m
Diameter 4.10 m
Span 29.00 m
Shape Box + pan
Manufacturer SPXS
Bus Type Starlink V2M
Phase Status In Orbit
Owner/State SPXS/US

Most Searched